Starlink 35593

operational
NORAD ID: 66106 Int'l Des: 2025-236 Owner: SPXS Country: US Constellation: starlink
NOTLE

Starlink 35593について

説明を読み込み中...

リアルタイム位置

3D地球を読み込み中...

次回通過

高度履歴

Altitude vs Time

uPlot chart will show altitude changes over time

軌道要素

1 66106C 25236X 25293.06576389 .00535260 00000+0 81514-3 0 2931
2 66106 53.1606 48.3416 0008638 260.4076 263.9145 16.03117953 15
Epoch: Oct 20, 2025 • Age: 19 hours

現在のステータス

高度 275.5 km
速度 7.75 km/s
衛星直下点 52.41°N, 162.67°E
打ち上げ日 Oct 19, 2025
運用期間 1 days
タイプ internet

技術仕様

分類 Payload
質量 575.00 kg
乾燥質量 530.00 kg
総質量 575.00 kg
長さ 0.30 m
直径 4.10 m
スパン 29.00 m
形状 Box + pan
製造者 SPXS
バスタイプ Starlink V2MO
フェーズステータス In Orbit
所有者/国 SPXS/US

大規模コンステレーション

Loading constellations...